Time,TemperatureF,DewpointF,PressureIn,WindDirection,WindDirectionDegrees,WindSpeedMPH,WindSpeedGustMPH,Humidity,HourlyPrecipIn,Conditions,Clouds,dailyrainin,SoftwareType,DateUTC
2013-04-11 00:00:00,55.8,55.0,29.80,ESE,102,3.0,0.0,96,0.00,,,0.48,oem by Ross Wheeler,2013-04-11 04:00:00,
2013-04-11 00:05:00,55.7,55.0,29.80,ESE,119,2.0,0.0,96,0.00,,,0.01,oem by Ross Wheeler,2013-04-11 04:05:00,
2013-04-11 00:10:00,55.5,54.0,29.80,SE,134,2.0,0.0,96,0.00,,,0.01,oem by Ross Wheeler,2013-04-11 04:10:00,
2013-04-11 00:15:00,55.4,55.0,29.82,SW,217,5.0,0.0,97,0.00,,,0.01,oem by Ross Wheeler,2013-04-11 04:15:00,
2013-04-11 00:25:00,55.5,55.0,29.82,SSW,193,5.0,0.0,97,0.00,,,0.01,oem by Ross Wheeler,2013-04-11 04:25:00,
2013-04-11 00:30:00,55.5,55.0,29.82,SSE,152,2.0,0.0,97,0.00,,,0.01,oem by Ross Wheeler,2013-04-11 04:30:00,
2013-04-11 00:40:00,55.5,55.0,29.82,SSE,157,0.0,0.0,97,0.00,,,0.01,oem by Ross Wheeler,2013-04-11 04:40:00,
2013-04-11 00:45:00,55.5,55.0,29.83,SSE,157,0.0,0.0,97,0.00,,,0.01,oem by Ross Wheeler,2013-04-11 04:45:00,
2013-04-11 00:55:00,55.8,55.0,29.83,SSE,157,0.0,0.0,97,0.00,,,0.01,oem by Ross Wheeler,2013-04-11 04:55:00,
2013-04-11 01:00:00,55.9,55.0,29.83,SSE,157,0.0,0.0,97,0.00,,,0.01,oem by Ross Wheeler,2013-04-11 05:00:00,
2013-04-11 01:10:00,56.2,55.0,29.83,SSE,157,1.0,0.0,97,0.00,,,0.01,oem by Ross Wheeler,2013-04-11 05:10:00,
2013-04-11 01:15:00,56.2,55.0,29.82,SSE,157,0.0,0.0,97,0.00,,,0.01,oem by Ross Wheeler,2013-04-11 05:15:00,
2013-04-11 01:25:00,56.2,55.0,29.82,South,185,0.0,0.0,97,0.00,,,0.01,oem by Ross Wheeler,2013-04-11 05:25:00,
2013-04-11 01:30:00,56.2,55.0,29.81,South,185,0.0,0.0,97,0.00,,,0.01,oem by Ross Wheeler,2013-04-11 05:30:00,
2013-04-11 01:40:00,56.2,55.0,29.81,South,185,0.0,0.0,97,0.00,,,0.01,oem by Ross Wheeler,2013-04-11 05:40:00,
2013-04-11 01:45:00,56.2,55.0,29.81,South,185,0.0,0.0,97,0.00,,,0.01,oem by Ross Wheeler,2013-04-11 05:45:00,
2013-04-11 01:55:00,56.2,55.0,29.81,South,185,0.0,0.0,97,0.00,,,0.01,oem by Ross Wheeler,2013-04-11 05:55:00,
2013-04-11 02:00:00,56.2,55.0,29.80,South,185,0.0,0.0,97,0.00,,,0.01,oem by Ross Wheeler,2013-04-11 06:00:00,
2013-04-11 02:10:00,56.5,56.0,29.80,South,185,0.0,0.0,98,0.00,,,0.01,oem by Ross Wheeler,2013-04-11 06:10:00,
2013-04-11 02:15:00,56.8,56.0,29.78,South,185,0.0,0.0,98,0.00,,,0.01,oem by Ross Wheeler,2013-04-11 06:15:00,
2013-04-11 02:25:00,57.0,57.0,29.78,South,185,0.0,0.0,98,0.00,,,0.01,oem by Ross Wheeler,2013-04-11 06:25:00,
2013-04-11 02:30:00,57.2,57.0,29.75,South,185,0.0,0.0,98,0.00,,,0.01,oem by Ross Wheeler,2013-04-11 06:30:00,
2013-04-11 02:40:00,57.0,57.0,29.75,South,185,2.0,0.0,98,0.00,,,0.01,oem by Ross Wheeler,2013-04-11 06:40:00,
2013-04-11 02:45:00,56.8,56.0,29.73,South,185,0.0,0.0,97,0.00,,,0.01,oem by Ross Wheeler,2013-04-11 06:45:00,
2013-04-11 02:55:00,56.8,56.0,29.73,South,185,0.0,0.0,98,0.00,,,0.01,oem by Ross Wheeler,2013-04-11 06:55:00,
2013-04-11 03:00:00,56.8,56.0,29.74,South,185,0.0,0.0,98,0.00,,,0.01,oem by Ross Wheeler,2013-04-11 07:00:00,
2013-04-11 03:10:00,57.2,57.0,29.74,South,185,0.0,0.0,98,0.00,,,0.01,oem by Ross Wheeler,2013-04-11 07:10:00,
2013-04-11 03:15:00,57.3,57.0,29.76,South,185,0.0,0.0,98,0.00,,,0.01,oem by Ross Wheeler,2013-04-11 07:15:00,
2013-04-11 03:25:00,57.3,57.0,29.76,South,185,0.0,0.0,98,0.00,,,0.01,oem by Ross Wheeler,2013-04-11 07:25:00,
2013-04-11 03:30:00,57.3,57.0,29.76,South,185,0.0,0.0,98,0.00,,,0.01,oem by Ross Wheeler,2013-04-11 07:30:00,
2013-04-11 03:40:00,57.0,57.0,29.76,South,185,0.0,0.0,98,0.00,,,0.01,oem by Ross Wheeler,2013-04-11 07:40:00,
2013-04-11 03:45:00,56.8,56.0,29.77,South,185,0.0,0.0,98,0.00,,,0.01,oem by Ross Wheeler,2013-04-11 07:45:00,
2013-04-11 03:55:00,56.8,56.0,29.77,South,185,0.0,0.0,98,0.00,,,0.01,oem by Ross Wheeler,2013-04-11 07:55:00,
2013-04-11 04:00:00,56.7,56.0,29.78,South,185,0.0,0.0,98,0.00,,,0.01,oem by Ross Wheeler,2013-04-11 08:00:00,
2013-04-11 04:10:00,56.7,56.0,29.78,South,185,0.0,0.0,98,0.00,,,0.01,oem by Ross Wheeler,2013-04-11 08:10:00,
2013-04-11 04:15:00,56.7,56.0,29.79,South,185,0.0,0.0,98,0.00,,,0.01,oem by Ross Wheeler,2013-04-11 08:15:00,
2013-04-11 04:25:00,56.7,56.0,29.79,South,185,0.0,0.0,98,0.00,,,0.01,oem by Ross Wheeler,2013-04-11 08:25:00,
2013-04-11 04:30:00,56.7,56.0,29.80,South,185,0.0,0.0,98,0.00,,,0.01,oem by Ross Wheeler,2013-04-11 08:30:00,
2013-04-11 04:40:00,56.8,56.0,29.80,South,185,0.0,0.0,98,0.00,,,0.01,oem by Ross Wheeler,2013-04-11 08:40:00,
2013-04-11 04:45:00,56.8,56.0,29.81,South,185,0.0,0.0,98,0.00,,,0.01,oem by Ross Wheeler,2013-04-11 08:45:00,
2013-04-11 04:55:00,57.2,57.0,29.81,South,185,0.0,0.0,98,0.00,,,0.01,oem by Ross Wheeler,2013-04-11 08:55:00,
2013-04-11 05:00:00,57.2,57.0,29.81,South,185,0.0,0.0,98,0.00,,,0.01,oem by Ross Wheeler,2013-04-11 09:00:00,
2013-04-11 05:10:00,57.2,57.0,29.81,South,185,0.0,0.0,98,0.00,,,0.01,oem by Ross Wheeler,2013-04-11 09:10:00,
2013-04-11 05:15:00,57.2,57.0,29.82,South,185,0.0,0.0,98,0.00,,,0.01,oem by Ross Wheeler,2013-04-11 09:15:00,
2013-04-11 05:25:00,57.2,57.0,29.82,South,185,0.0,0.0,98,0.00,,,0.01,oem by Ross Wheeler,2013-04-11 09:25:00,
2013-04-11 05:30:00,57.3,57.0,29.82,South,185,0.0,0.0,98,0.00,,,0.01,oem by Ross Wheeler,2013-04-11 09:30:00,
2013-04-11 05:40:00,57.6,57.0,29.82,South,185,1.0,0.0,98,0.00,,,0.01,oem by Ross Wheeler,2013-04-11 09:40:00,
2013-04-11 05:45:00,57.6,57.0,29.83,South,185,0.0,0.0,98,0.00,,,0.01,oem by Ross Wheeler,2013-04-11 09:45:00,
2013-04-11 05:55:00,57.9,57.0,29.83,South,185,0.0,0.0,98,0.00,,,0.01,oem by Ross Wheeler,2013-04-11 09:55:00,
2013-04-11 06:00:00,58.1,58.0,29.84,South,185,0.0,0.0,98,0.00,,,0.01,oem by Ross Wheeler,2013-04-11 10:00:00,
2013-04-11 06:10:00,58.2,58.0,29.84,South,185,0.0,0.0,98,0.00,,,0.01,oem by Ross Wheeler,2013-04-11 10:10:00,
2013-04-11 06:15:00,58.4,58.0,29.85,South,185,0.0,0.0,98,0.00,,,0.01,oem by Ross Wheeler,2013-04-11 10:15:00,
2013-04-11 06:25:00,57.9,57.0,29.85,NNE,25,5.0,0.0,98,0.00,,,0.01,oem by Ross Wheeler,2013-04-11 10:25:00,
2013-04-11 06:30:00,57.2,57.0,29.87,NNE,28,2.0,0.0,98,0.00,,,0.01,oem by Ross Wheeler,2013-04-11 10:30:00,
2013-04-11 06:40:00,56.5,56.0,29.87,NNE,31,1.0,0.0,98,0.00,,,0.01,oem by Ross Wheeler,2013-04-11 10:40:00,
2013-04-11 06:45:00,56.4,56.0,29.88,NE,34,2.0,0.0,98,0.00,,,0.01,oem by Ross Wheeler,2013-04-11 10:45:00,
2013-04-11 06:55:00,56.1,56.0,29.88,NNE,21,1.0,0.0,98,0.00,,,0.01,oem by Ross Wheeler,2013-04-11 10:55:00,
2013-04-11 07:00:00,55.9,55.0,29.88,NE,47,0.0,0.0,98,0.00,,,0.01,oem by Ross Wheeler,2013-04-11 11:00:00,
2013-04-11 07:10:00,55.7,55.0,29.88,NNE,27,0.0,0.0,98,0.00,,,0.01,oem by Ross Wheeler,2013-04-11 11:10:00,
2013-04-11 07:15:00,55.5,55.0,29.88,NNE,14,3.0,0.0,98,0.00,,,0.01,oem by Ross Wheeler,2013-04-11 11:15:00,
2013-04-11 07:25:00,55.2,55.0,29.88,NNE,23,1.0,0.0,98,0.00,,,0.01,oem by Ross Wheeler,2013-04-11 11:25:00,
2013-04-11 07:30:00,55.1,55.0,29.87,NNE,24,4.0,0.0,98,0.00,,,0.01,oem by Ross Wheeler,2013-04-11 11:30:00,
2013-04-11 07:40:00,55.2,55.0,29.87,North,4,2.0,0.0,98,0.00,,,0.01,oem by Ross Wheeler,2013-04-11 11:40:00,
2013-04-11 07:45:00,55.2,55.0,29.88,North,7,5.0,0.0,98,0.00,,,0.01,oem by Ross Wheeler,2013-04-11 11:45:00,
2013-04-11 07:55:00,55.1,54.0,29.88,NNE,28,3.0,0.0,97,0.00,,,0.01,oem by Ross Wheeler,2013-04-11 11:55:00,
2013-04-11 08:00:00,54.8,54.0,29.88,North,10,4.0,0.0,97,0.00,,,0.01,oem by Ross Wheeler,2013-04-11 12:00:00,
2013-04-11 08:10:00,54.6,54.0,29.88,NE,35,1.0,0.0,97,0.00,,,0.01,oem by Ross Wheeler,2013-04-11 12:10:00,
2013-04-11 08:15:00,54.6,54.0,29.88,NE,37,0.0,0.0,97,0.00,,,0.01,oem by Ross Wheeler,2013-04-11 12:15:00,
2013-04-11 08:25:00,54.8,54.0,29.88,NNE,23,2.0,0.0,96,0.00,,,0.01,oem by Ross Wheeler,2013-04-11 12:25:00,
2013-04-11 08:30:00,54.8,54.0,29.88,NNE,25,1.0,0.0,96,0.00,,,0.01,oem by Ross Wheeler,2013-04-11 12:30:00,
2013-04-11 08:40:00,54.8,53.0,29.88,NE,37,5.0,0.0,94,0.00,,,0.01,oem by Ross Wheeler,2013-04-11 12:40:00,
2013-04-11 08:45:00,54.8,53.0,29.88,NNE,28,6.0,0.0,93,0.00,,,0.01,oem by Ross Wheeler,2013-04-11 12:45:00,
2013-04-11 08:55:00,54.6,52.0,29.88,North,11,5.0,0.0,90,0.00,,,0.01,oem by Ross Wheeler,2013-04-11 12:55:00,
2013-04-11 09:00:00,54.5,51.0,29.89,ENE,58,4.0,0.0,89,0.00,,,0.01,oem by Ross Wheeler,2013-04-11 13:00:00,
2013-04-11 09:10:00,54.5,50.0,29.89,NE,38,1.0,0.0,86,0.00,,,0.01,oem by Ross Wheeler,2013-04-11 13:10:00,
2013-04-11 09:15:00,54.3,50.0,29.90,NE,37,6.0,0.0,85,0.00,,,0.01,oem by Ross Wheeler,2013-04-11 13:15:00,
2013-04-11 09:25:00,53.9,49.0,29.90,North,10,6.0,0.0,83,0.00,,,0.01,oem by Ross Wheeler,2013-04-11 13:25:00,
2013-04-11 09:30:00,53.7,49.0,29.91,NNE,13,3.0,0.0,83,0.00,,,0.01,oem by Ross Wheeler,2013-04-11 13:30:00,
2013-04-11 09:40:00,53.4,48.0,29.91,NNE,32,5.0,0.0,81,0.00,,,0.01,oem by Ross Wheeler,2013-04-11 13:40:00,
2013-04-11 09:45:00,53.4,48.0,29.91,NE,39,3.0,0.0,81,0.00,,,0.01,oem by Ross Wheeler,2013-04-11 13:45:00,
2013-04-11 09:55:00,53.4,47.0,29.91,NE,51,3.0,0.0,80,0.00,,,0.01,oem by Ross Wheeler,2013-04-11 13:55:00,
2013-04-11 10:00:00,53.4,48.0,29.92,North,349,4.0,0.0,81,0.00,,,0.01,oem by Ross Wheeler,2013-04-11 14:00:00,
2013-04-11 10:05:00,53.4,47.0,29.92,NNE,23,7.0,0.0,80,0.00,,,0.01,oem by Ross Wheeler,2013-04-11 14:05:00,
2013-04-11 10:15:00,53.6,47.0,29.93,NNE,21,3.0,0.0,79,0.00,,,0.01,oem by Ross Wheeler,2013-04-11 14:15:00,
2013-04-11 10:25:00,53.9,48.0,29.93,NE,38,2.0,0.0,80,0.00,,,0.01,oem by Ross Wheeler,2013-04-11 14:25:00,
2013-04-11 10:30:00,54.2,48.0,29.92,North,349,3.0,0.0,79,0.00,,,0.01,oem by Ross Wheeler,2013-04-11 14:30:00,
2013-04-11 10:40:00,54.5,47.0,29.92,North,11,5.0,0.0,77,0.00,,,0.01,oem by Ross Wheeler,2013-04-11 14:40:00,
2013-04-11 10:45:00,54.6,48.0,29.93,North,359,5.0,0.0,77,0.00,,,0.01,oem by Ross Wheeler,2013-04-11 14:45:00,
2013-04-11 10:55:00,54.9,47.0,29.93,North,359,4.0,0.0,76,0.00,,,0.01,oem by Ross Wheeler,2013-04-11 14:55:00,
2013-04-11 11:00:00,55.1,47.0,29.93,NNE,20,2.0,0.0,75,0.00,,,0.01,oem by Ross Wheeler,2013-04-11 15:00:00,
2013-04-11 11:10:00,55.4,47.0,29.93,NNE,13,2.0,0.0,74,0.00,,,0.01,oem by Ross Wheeler,2013-04-11 15:10:00,
2013-04-11 11:15:00,55.5,47.0,29.93,NNE,20,2.0,0.0,74,0.00,,,0.01,oem by Ross Wheeler,2013-04-11 15:15:00,
2013-04-11 11:25:00,55.9,47.0,29.93,NNE,18,2.0,0.0,73,0.00,,,0.01,oem by Ross Wheeler,2013-04-11 15:25:00,
2013-04-11 11:30:00,56.2,48.0,29.93,NNE,14,1.0,0.0,73,0.00,,,0.01,oem by Ross Wheeler,2013-04-11 15:30:00,
2013-04-11 11:40:00,56.8,48.0,29.93,NNE,25,3.0,0.0,72,0.00,,,0.01,oem by Ross Wheeler,2013-04-11 15:40:00,
2013-04-11 11:45:00,57.2,49.0,29.93,NE,34,1.0,0.0,73,0.00,,,0.01,oem by Ross Wheeler,2013-04-11 15:45:00,
2013-04-11 11:55:00,57.6,49.0,29.93,NNE,20,4.0,0.0,72,0.00,,,0.01,oem by Ross Wheeler,2013-04-11 15:55:00,
2013-04-11 12:00:00,58.1,49.0,29.93,North,7,3.0,0.0,71,0.00,,,0.01,oem by Ross Wheeler,2013-04-11 16:00:00,
2013-04-11 12:10:00,58.5,49.0,29.93,NNE,25,3.0,0.0,71,0.00,,,0.01,oem by Ross Wheeler,2013-04-11 16:10:00,
2013-04-11 12:15:00,58.7,49.0,29.93,NNE,25,0.0,0.0,70,0.00,,,0.01,oem by Ross Wheeler,2013-04-11 16:15:00,
2013-04-11 12:25:00,59.0,50.0,29.93,NNE,25,1.0,0.0,71,0.00,,,0.01,oem by Ross Wheeler,2013-04-11 16:25:00,
2013-04-11 12:30:00,59.1,49.0,29.93,ENE,61,1.0,0.0,69,0.00,,,0.01,oem by Ross Wheeler,2013-04-11 16:30:00,
2013-04-11 12:40:00,59.0,49.0,29.93,North,349,2.0,0.0,70,0.00,,,0.01,oem by Ross Wheeler,2013-04-11 16:40:00,
2013-04-11 12:45:00,59.3,50.0,29.93,NE,45,2.0,0.0,70,0.00,,,0.01,oem by Ross Wheeler,2013-04-11 16:45:00,
2013-04-11 12:55:00,59.6,49.0,29.93,ENE,71,1.0,0.0,69,0.00,,,0.01,oem by Ross Wheeler,2013-04-11 16:55:00,
2013-04-11 13:00:00,59.3,49.0,29.93,East,80,1.0,0.0,69,0.00,,,0.01,oem by Ross Wheeler,2013-04-11 17:00:00,
2013-04-11 13:10:00,59.0,50.0,29.93,East,99,3.0,0.0,71,0.00,,,0.01,oem by Ross Wheeler,2013-04-11 17:10:00,
2013-04-11 13:15:00,59.0,49.0,29.93,ENE,63,2.0,0.0,70,0.00,,,0.01,oem by Ross Wheeler,2013-04-11 17:15:00,
2013-04-11 13:25:00,58.8,49.0,29.93,North,10,1.0,0.0,71,0.00,,,0.01,oem by Ross Wheeler,2013-04-11 17:25:00,
2013-04-11 13:30:00,59.0,49.0,29.93,ENE,78,1.0,0.0,70,0.00,,,0.01,oem by Ross Wheeler,2013-04-11 17:30:00,
2013-04-11 13:40:00,59.1,50.0,29.93,East,90,3.0,0.0,71,0.00,,,0.01,oem by Ross Wheeler,2013-04-11 17:40:00,
2013-04-11 13:45:00,59.1,50.0,29.93,East,97,1.0,0.0,71,0.00,,,0.01,oem by Ross Wheeler,2013-04-11 17:45:00,
2013-04-11 13:55:00,59.1,50.0,29.93,SE,126,0.0,0.0,73,0.00,,,0.01,oem by Ross Wheeler,2013-04-11 17:55:00,
2013-04-11 14:00:00,59.0,51.0,29.93,SSE,167,2.0,0.0,74,0.00,,,0.01,oem by Ross Wheeler,2013-04-11 18:00:00,
2013-04-11 14:10:00,58.4,51.0,29.93,ESE,104,0.0,0.0,77,0.00,,,0.01,oem by Ross Wheeler,2013-04-11 18:10:00,
2013-04-11 14:15:00,58.2,51.0,29.93,ESE,117,0.0,0.0,78,0.00,,,0.01,oem by Ross Wheeler,2013-04-11 18:15:00,
2013-04-11 14:25:00,58.4,51.0,29.93,SE,138,1.0,0.0,77,0.00,,,0.01,oem by Ross Wheeler,2013-04-11 18:25:00,
2013-04-11 14:30:00,58.5,51.0,29.93,ESE,114,2.0,0.0,77,0.00,,,0.01,oem by Ross Wheeler,2013-04-11 18:30:00,
2013-04-11 14:40:00,58.2,51.0,29.93,ESE,104,3.0,0.0,77,0.00,,,0.01,oem by Ross Wheeler,2013-04-11 18:40:00,
2013-04-11 14:45:00,57.9,51.0,29.92,ESE,111,2.0,0.0,77,0.00,,,0.01,oem by Ross Wheeler,2013-04-11 18:45:00,
2013-04-11 14:55:00,57.8,51.0,29.92,SE,135,3.0,0.0,78,0.00,,,0.01,oem by Ross Wheeler,2013-04-11 18:55:00,
2013-04-11 15:00:00,57.6,51.0,29.92,ESE,116,2.0,0.0,78,0.00,,,0.01,oem by Ross Wheeler,2013-04-11 19:00:00,
2013-04-11 15:10:00,57.5,50.0,29.92,ESE,119,5.0,0.0,77,0.00,,,0.01,oem by Ross Wheeler,2013-04-11 19:10:00,
2013-04-11 15:15:00,57.3,50.0,29.92,ESE,116,1.0,0.0,77,0.00,,,0.01,oem by Ross Wheeler,2013-04-11 19:15:00,
2013-04-11 15:25:00,56.5,49.0,29.92,ESE,117,5.0,0.0,76,0.00,,,0.01,oem by Ross Wheeler,2013-04-11 19:25:00,
2013-04-11 15:30:00,55.9,49.0,29.92,ESE,117,3.0,0.0,77,0.00,,,0.01,oem by Ross Wheeler,2013-04-11 19:30:00,
2013-04-11 15:40:00,55.4,49.0,29.92,East,97,2.0,0.0,79,0.00,,,0.01,oem by Ross Wheeler,2013-04-11 19:40:00,
2013-04-11 15:45:00,55.1,49.0,29.92,ESE,109,8.0,0.0,79,0.00,,,0.01,oem by Ross Wheeler,2013-04-11 19:45:00,
2013-04-11 15:55:00,54.3,49.0,29.92,East,97,3.0,0.0,81,0.00,,,0.01,oem by Ross Wheeler,2013-04-11 19:55:00,
2013-04-11 16:00:00,53.9,49.0,29.92,East,90,7.0,0.0,82,0.00,,,0.01,oem by Ross Wheeler,2013-04-11 20:00:00,
2013-04-11 16:10:00,53.1,48.0,29.92,East,95,7.0,0.0,84,0.00,,,0.01,oem by Ross Wheeler,2013-04-11 20:10:00,
2013-04-11 16:15:00,52.7,48.0,29.92,East,99,7.0,0.0,85,0.00,,,0.01,oem by Ross Wheeler,2013-04-11 20:15:00,
2013-04-11 16:25:00,51.7,48.0,29.92,East,92,7.0,0.0,87,0.00,,,0.01,oem by Ross Wheeler,2013-04-11 20:25:00,
2013-04-11 16:30:00,51.2,48.0,29.93,ESE,109,7.0,0.0,88,0.00,,,0.01,oem by Ross Wheeler,2013-04-11 20:30:00,
2013-04-11 16:40:00,50.9,48.0,29.93,ENE,65,5.0,0.0,88,0.00,,,0.01,oem by Ross Wheeler,2013-04-11 20:40:00,
2013-04-11 16:45:00,50.8,47.0,29.92,ESE,120,10.0,0.0,87,0.00,,,0.01,oem by Ross Wheeler,2013-04-11 20:45:00,
2013-04-11 16:55:00,50.5,47.0,29.92,ESE,103,7.0,0.0,88,0.00,,,0.01,oem by Ross Wheeler,2013-04-11 20:55:00,
2013-04-11 17:00:00,50.3,47.0,29.93,East,93,7.0,0.0,88,0.00,,,0.01,oem by Ross Wheeler,2013-04-11 21:00:00,
2013-04-11 17:10:00,49.9,46.0,29.93,ESE,119,8.0,0.0,87,0.00,,,0.01,oem by Ross Wheeler,2013-04-11 21:10:00,
2013-04-11 17:15:00,49.6,46.0,29.93,ESE,120,7.0,0.0,88,0.00,,,0.01,oem by Ross Wheeler,2013-04-11 21:15:00,
2013-04-11 17:25:00,49.3,46.0,29.93,ESE,123,5.0,0.0,88,0.00,,,0.01,oem by Ross Wheeler,2013-04-11 21:25:00,
2013-04-11 17:30:00,49.1,46.0,29.94,ESE,103,6.0,0.0,88,0.00,,,0.01,oem by Ross Wheeler,2013-04-11 21:30:00,
2013-04-11 17:40:00,48.8,45.0,29.94,ESE,123,8.0,0.0,88,0.00,,,0.01,oem by Ross Wheeler,2013-04-11 21:40:00,
2013-04-11 17:45:00,48.7,45.0,29.95,SE,130,7.0,0.0,88,0.00,,,0.01,oem by Ross Wheeler,2013-04-11 21:45:00,
2013-04-11 17:55:00,48.3,45.0,29.95,East,87,9.0,0.0,89,0.00,,,0.01,oem by Ross Wheeler,2013-04-11 21:55:00,
2013-04-11 18:00:00,48.1,45.0,29.96,ESE,110,7.0,0.0,89,0.00,,,0.01,oem by Ross Wheeler,2013-04-11 22:00:00,
2013-04-11 18:10:00,47.8,45.0,29.96,East,97,6.0,0.0,89,0.00,,,0.01,oem by Ross Wheeler,2013-04-11 22:10:00,
2013-04-11 18:15:00,47.7,45.0,29.96,SSE,148,9.0,0.0,90,0.00,,,0.01,oem by Ross Wheeler,2013-04-11 22:15:00,
2013-04-11 18:25:00,47.4,44.0,29.96,ESE,106,9.0,0.0,89,0.00,,,0.01,oem by Ross Wheeler,2013-04-11 22:25:00,
2013-04-11 18:30:00,47.2,44.0,29.96,ESE,123,8.0,0.0,89,0.00,,,0.01,oem by Ross Wheeler,2013-04-11 22:30:00,
2013-04-11 18:40:00,47.1,44.0,29.96,East,96,6.0,0.0,89,0.00,,,0.01,oem by Ross Wheeler,2013-04-11 22:40:00,
2013-04-11 18:45:00,47.1,44.0,29.96,East,97,8.0,0.0,89,0.00,,,0.01,oem by Ross Wheeler,2013-04-11 22:45:00,
2013-04-11 18:55:00,46.9,44.0,29.96,East,96,7.0,0.0,89,0.00,,,0.01,oem by Ross Wheeler,2013-04-11 22:55:00,
2013-04-11 19:00:00,46.9,44.0,29.96,ESE,116,6.0,0.0,89,0.00,,,0.01,oem by Ross Wheeler,2013-04-11 23:00:00,
2013-04-11 19:10:00,46.9,44.0,29.96,ESE,107,9.0,0.0,89,0.00,,,0.01,oem by Ross Wheeler,2013-04-11 23:10:00,
2013-04-11 19:15:00,46.8,44.0,29.96,SE,133,8.0,0.0,89,0.00,,,0.01,oem by Ross Wheeler,2013-04-11 23:15:00,
2013-04-11 19:25:00,46.6,44.0,29.96,ESE,110,7.0,0.0,89,0.00,,,0.01,oem by Ross Wheeler,2013-04-11 23:25:00,
2013-04-11 19:30:00,46.6,44.0,29.97,East,96,6.0,0.0,90,0.00,,,0.01,oem by Ross Wheeler,2013-04-11 23:30:00,
2013-04-11 19:40:00,46.5,44.0,29.97,SE,124,11.0,0.0,90,0.00,,,0.01,oem by Ross Wheeler,2013-04-11 23:40:00,
2013-04-11 19:45:00,46.5,44.0,29.96,ESE,116,5.0,0.0,90,0.00,,,0.01,oem by Ross Wheeler,2013-04-11 23:45:00,
2013-04-11 19:55:00,46.3,44.0,29.96,East,97,10.0,0.0,90,0.00,,,0.01,oem by Ross Wheeler,2013-04-11 23:55:00,
2013-04-11 20:00:00,46.3,44.0,29.97,ESE,116,13.0,0.0,90,0.00,,,0.01,oem by Ross Wheeler,2013-04-12 00:00:00,
2013-04-11 20:10:00,46.2,43.0,29.97,ESE,110,5.0,0.0,89,0.00,,,0.01,oem by Ross Wheeler,2013-04-12 00:10:00,
2013-04-11 20:15:00,46.2,43.0,29.97,NE,56,5.0,0.0,89,0.00,,,0.01,oem by Ross Wheeler,2013-04-12 00:15:00,
2013-04-11 20:25:00,46.2,43.0,29.97,ENE,76,3.0,0.0,89,0.00,,,0.01,oem by Ross Wheeler,2013-04-12 00:25:00,
2013-04-11 20:30:00,46.2,43.0,29.98,ENE,75,6.0,0.0,88,0.00,,,0.01,oem by Ross Wheeler,2013-04-12 00:30:00,
2013-04-11 20:40:00,46.2,43.0,29.98,ENE,71,6.0,0.0,88,0.00,,,0.01,oem by Ross Wheeler,2013-04-12 00:40:00,
2013-04-11 20:45:00,46.2,43.0,29.97,ESE,103,8.0,0.0,87,0.00,,,0.01,oem by Ross Wheeler,2013-04-12 00:45:00,
2013-04-11 20:55:00,46.3,42.0,29.97,East,89,6.0,0.0,86,0.00,,,0.01,oem by Ross Wheeler,2013-04-12 00:55:00,
2013-04-11 21:00:00,46.5,42.0,29.98,ESE,111,3.0,0.0,85,0.00,,,0.01,oem by Ross Wheeler,2013-04-12 01:00:00,
2013-04-11 21:10:00,46.6,42.0,29.98,East,96,6.0,0.0,85,0.00,,,0.01,oem by Ross Wheeler,2013-04-12 01:10:00,
2013-04-11 21:15:00,46.6,42.0,29.98,East,92,6.0,0.0,84,0.00,,,0.01,oem by Ross Wheeler,2013-04-12 01:15:00,
2013-04-11 21:25:00,46.8,42.0,29.98,East,82,5.0,0.0,84,0.00,,,0.01,oem by Ross Wheeler,2013-04-12 01:25:00,
2013-04-11 21:30:00,46.8,42.0,29.98,East,85,3.0,0.0,83,0.00,,,0.01,oem by Ross Wheeler,2013-04-12 01:30:00,
2013-04-11 21:40:00,46.9,42.0,29.98,ESE,104,2.0,0.0,83,0.00,,,0.01,oem by Ross Wheeler,2013-04-12 01:40:00,
2013-04-11 21:45:00,46.9,42.0,29.99,NE,38,5.0,0.0,84,0.00,,,0.01,oem by Ross Wheeler,2013-04-12 01:45:00,
2013-04-11 21:55:00,47.1,42.0,29.99,East,80,2.0,0.0,83,0.00,,,0.01,oem by Ross Wheeler,2013-04-12 01:55:00,
2013-04-11 22:00:00,47.1,42.0,29.99,East,87,3.0,0.0,82,0.00,,,0.01,oem by Ross Wheeler,2013-04-12 02:00:00,
2013-04-11 22:10:00,47.2,42.0,29.99,East,79,2.0,0.0,82,0.00,,,0.01,oem by Ross Wheeler,2013-04-12 02:10:00,
2013-04-11 22:15:00,47.2,42.0,30.00,ENE,75,5.0,0.0,82,0.00,,,0.01,oem by Ross Wheeler,2013-04-12 02:15:00,
2013-04-11 22:25:00,47.2,42.0,30.00,East,82,5.0,0.0,81,0.00,,,0.01,oem by Ross Wheeler,2013-04-12 02:25:00,
2013-04-11 22:30:00,47.2,42.0,30.00,East,96,2.0,0.0,81,0.00,,,0.01,oem by Ross Wheeler,2013-04-12 02:30:00,
2013-04-11 22:40:00,47.2,41.0,30.00,East,80,2.0,0.0,80,0.00,,,0.01,oem by Ross Wheeler,2013-04-12 02:40:00,
2013-04-11 22:45:00,47.2,41.0,30.00,ENE,68,3.0,0.0,80,0.00,,,0.01,oem by Ross Wheeler,2013-04-12 02:45:00,
2013-04-11 22:55:00,47.4,42.0,30.00,NE,49,2.0,0.0,80,0.00,,,0.01,oem by Ross Wheeler,2013-04-12 02:55:00,
2013-04-11 23:00:00,47.5,42.0,29.99,ENE,69,3.0,0.0,80,0.00,,,0.01,oem by Ross Wheeler,2013-04-12 03:00:00,
2013-04-11 23:10:00,47.5,41.0,29.99,NE,34,2.0,0.0,79,0.00,,,0.01,oem by Ross Wheeler,2013-04-12 03:10:00,
2013-04-11 23:15:00,47.7,42.0,30.00,ENE,65,5.0,0.0,79,0.00,,,0.01,oem by Ross Wheeler,2013-04-12 03:15:00,
2013-04-11 23:25:00,47.8,41.0,30.00,ENE,59,5.0,0.0,78,0.00,,,0.01,oem by Ross Wheeler,2013-04-12 03:25:00,
2013-04-11 23:30:00,47.8,41.0,29.99,NNE,28,8.0,0.0,78,0.00,,,0.01,oem by Ross Wheeler,2013-04-12 03:30:00,
2013-04-11 23:40:00,48.0,41.0,29.99,ENE,58,2.0,0.0,78,0.00,,,0.01,oem by Ross Wheeler,2013-04-12 03:40:00,
2013-04-11 23:45:00,48.0,41.0,29.99,ENE,65,4.0,0.0,77,0.00,,,0.01,oem by Ross Wheeler,2013-04-12 03:45:00,
2013-04-11 23:55:00,48.0,41.0,29.99,NE,52,4.0,0.0,77,0.00,,,0.01,oem by Ross Wheeler,2013-04-12 03:55:00,